Weather Roundup
Issued by NWS Chicago, IL

Home | Current Version | Previous Version | Graphics & Text | Print | Product List | Glossary On
Versions: 1 2 3 4 5 6 7 8 9 10 11 12 13 14 15 16 17 18 19 20 21 22 23 24 25 26 27 28 29 30 31 32 33 34 35 36 37 38 39 40 41 42 43 44 45 46 47 48 49 50
895
NZUS59 KLOT 240003
HRRLOT

CHICAGO AREA WEATHER ROUNDUP
NATIONAL WEATHER SERVICE CHICAGO/ROMEOVILLE IL
700 PM CDT SAT JUL 23 2016

NOTE: "FAIR" INDICATES FEW OR NO CLOUDS BELOW 12,000 FEET WITH NO
SIGNIFICANT WEATHER AND/OR OBSTRUCTIONS TO VISIBILITY.

* THESE STATIONS ARE NOT UNDER NWS QUALITY CONTROL. THEY ALSO MAY NOT
  REPORT WEATHER SUCH AS PRECIPITATION OR FOG.

ILZ005-006-012>014-019>023-240100-
NORTHEAST ILLINOIS

CITY           SKY/WX    TMP DP  RH WIND       PRES   REMARKS
OHARE          TSTM      73  72  96 N18G25    29.97R FOG
6HR MIN TEMP:  73; 6HR MAX TEMP:  91; 6HR PCP:  0.04;

MIDWAY         CLOUDY    82  70  66 N16G24    29.95R THUNDER HX  86
6HR MIN TEMP:  82; 6HR MAX TEMP:  92;

AURORA         CLOUDY    77  68  73 NE10      29.94S
6HR MIN TEMP:  77; 6HR MAX TEMP:  89;

WAUKEGAN       LGT RAIN  71  69  93 S7        29.95F FOG
6HR MIN TEMP:  71; 6HR MAX TEMP:  86; 6HR PCP:  1.23;

DUPAGE AIRPORT LGT RAIN  74  70  87 NE17      29.95R
6HR MIN TEMP:  74; 6HR MAX TEMP:  90; 6HR PCP:  0.27;

WHEELING       TSTM      72  70  93 E10       29.98R FOG
6HR MIN TEMP:  72; 6HR MAX TEMP:  91; 6HR PCP:  0.89;

MORRIS*        CLOUDY    84  77  79 CALM      29.91S HX  94
NORTHERLY ISL    N/A     73  67  81 N21         N/A
$$

WIZ051-052-058>065-066-070>072-240100-
SOUTHEAST WISCONSIN

CITY           SKY/WX    TMP DP  RH WIND       PRES   REMARKS
MILWAUKEE      CLOUDY    76  72  87 S8        29.93F
6HR MIN TEMP:  72; 6HR MAX TEMP:  87; 6HR PCP:  0.61;

KENOSHA*       CLOUDY    74  67  78 SE6       29.95S
RACINE*        CLOUDY    74  70  87 S6        29.96R
BURLINGTON     LGT RAIN  72  70  93 CALM      29.96R
WAUKESHA       CLOUDY    70  66  88 S5        29.95F
$$

INZ001>003-010>013-019-020-240100-
NORTHWEST INDIANA

CITY           SKY/WX    TMP DP  RH WIND       PRES   REMARKS
GARY*          PTSUNNY   88 N/A N/A S6        29.92S
MICHIGAN CITY* NOT AVBL
RENSSELAER*    NOT AVBL
VALPARAISO     MOSUNNY   86  77  74 S3        29.94S HX  97
$$

LMZ740>746-240100-
SOUTHERN LAKE MICHIGAN

STATION/POSITION TIME  SKY/WX   TEMP WIND        PRES    VSBY
                                AIR  DIR/SP/G
                 (UTC)          (F)  (DEG/KT/KT) (MB)    (MI)
HARRISON CRIB    2300            81  110/ 17/ 17   N/A
BURNHAM HARBOR   0000            73  330/ 16/ 24   N/A
CALUMET HARBOR   2300            81                N/A
BURNS HARBOR     2300            80   80/  8/ 10 1013.5F
MICHIGAN CITY    2300            82   40/  8/  9   N/A
$$

ABBREVIATIONS USED IN REMARKS
   TC - TEMPERATURE IN CELSIUS
  WCI - WIND CHILL INDEX
   HX - HEAT INDEX
  VSB - VISIBILITY
$$




USA.gov is the U.S. government's official web portal to all federal, state and local government web resources and services.